Find Local Weather

World > North America > United States > Nevada

Rye Patch, Nevada Regional Weather

Lat: 40.45N, Lon: 118.29W
Wx Zone: NVZ004
Feedback

Rye Patch, NV Regional Weather

Expires:201905251600;;440319
ASUS45 KREV 251510
RWRNV 
NEVADA REGIONAL WEATHER ROUNDUP
NATIONAL WEATHER SERVICE RENO NV
800 AM PDT SAT MAY 25 2019

NOTE: "FAIR" INDICATES FEW OR NO CLOUDS BELOW 12,000 FEET WITH NO
SIGNIFICANT WEATHER AND/OR OBSTRUCTIONS TO VISIBILITY.


NVZ001-003-004-251600-
WESTERN NEVADA
  
CITY           SKY/WX    TMP DP  RH WIND       PRES   REMARKS
RENO           LGT RAIN  48  38  68 VRB5      29.89R                  
CARSON CITY    FAIR      48  36  61 E5        29.87S                  
MINDEN         FAIR      46  37  71 CALM      29.89S                  
SLIDE MTN        N/A     32  30  93 SW7         N/A                   
FALLON         MOSUNNY   52  46  80 E9        29.87S                  
LOVELOCK       PTSUNNY   49  43  80 NE3       29.87S                  
HAWTHORNE      SUNNY     54  39  58 CALM      29.88S                  
$$


SKY/WX - Weather  TMP - Temperature  DP - Dew Point  RH - Relative Humidity
WIND - Wind Direction/Speed PRES - Barometric Pressure VSB - Visibility
WCI - Wind Chill Index E13G22 Wind - East Wind 13 mph/Gusts of 22 mph